FW2728 Weather Reports


Display with metric or nautical units.
time (UTC)temp
F
wind
direction
speed
MPH
gust
MPH
rain 1hr
in
rain 24hr
in
rain mn
in
humidity
%
barometer
mb
20200407043516 65 0.0 0.0 0.00 0.00 0.00 87 1014.4
20200407043016 65 0.0 0.0 0.00 0.00 0.00 87 1014.4
20200407042516 65 0.0 0.0 0.00 0.00 0.00 87 1014.6
20200407042016 65 0.0 0.0 0.00 0.00 0.00 87 1014.7
20200407041516 65 0.0 0.0 0.00 0.00 0.00 87 1014.8
20200407041016 65 0.0 0.0 0.00 0.00 0.00 87 1014.8
20200407040516 65 0.0 0.0 0.00 0.00 0.00 87 1015.0
20200407040016 65 0.0 0.0 0.00 0.00 0.00 87 1014.9
20200407035516 65 0.0 0.0 0.00 0.00 0.00 86 1014.9
20200407035016 65 0.0 0.0 0.00 0.00 0.00 86 1015.0
20200407034516 65 0.0 0.0 0.00 0.00 0.00 86 1015.0
20200407034016 65 0.0 0.0 0.00 0.00 0.00 86 1015.1
20200407033516 65 0.0 0.0 0.00 0.00 0.00 86 1015.0
20200407033016 66 0.0 0.0 0.00 0.00 0.00 86 1014.7
20200407032515 66 0.0 0.0 0.00 0.00 0.00 86 1014.6
20200407032015 66 0.0 0.0 0.00 0.00 0.00 86 1014.6
20200407031516 66 0.0 0.0 0.00 0.00 0.00 86 1014.6
20200407031015 66 0.0 0.0 0.00 0.00 0.00 86 1014.6
20200407030516 66 0.0 0.0 0.00 0.00 0.00 86 1014.6
20200407030016 66 0.0 0.0 0.00 0.00 0.00 86 1014.6
20200407025515 66 0.0 0.0 0.00 0.00 0.00 86 1014.7
20200407025016 67 0.0 0.0 0.00 0.00 0.00 86 1014.5
20200407024515 67 0.0 0.0 0.00 0.00 0.00 86 1014.5
20200407024016 67 0.0 0.0 0.00 0.00 0.00 86 1014.5
20200407023516 67 0.0 0.0 0.00 0.00 0.00 86 1014.6
20200407023016 67 0.0 0.0 0.00 0.00 0.00 86 1014.6
20200407022516 67 0.0 0.0 0.00 0.00 0.00 86 1014.6
20200407022016 66 0.0 0.0 0.00 0.00 0.00 86 1014.6
20200407021516 67 0.0 0.0 0.00 0.00 0.00 85 1014.3
20200407021016 67 0.0 0.0 0.00 0.00 0.00 85 1014.2
20200407020516 67 0.0 0.0 0.00 0.00 0.00 85 1014.1
20200407020016 67 0.0 0.0 0.00 0.00 0.00 85 1013.7
20200407015515 67 0.0 0.0 0.00 0.00 0.00 85 1013.5
20200407015015 67 0.0 0.0 0.00 0.00 0.00 85 1013.4
20200407014515 67 0.0 0.0 0.00 0.00 0.00 85 1013.3
20200407014016 67 0.0 0.0 0.00 0.00 0.00 85 1013.2
20200407013515 67 0.0 2.0 0.00 0.00 0.00 85 1013.1
20200407013015 67 0.0 0.0 0.00 0.00 0.00 85 1013.0
20200407012516 67 0.0 1.0 0.00 0.00 0.00 85 1012.9
20200407012015 67 0.0 3.0 0.00 0.00 0.00 85 1012.9
20200407011515 67 158 1.0 4.0 0.00 0.00 0.00 85 1013.0
20200407011016 67 158 1.0 4.0 0.00 0.00 0.00 85 1012.9
20200407010515 67 158 1.0 3.0 0.00 0.00 0.00 84 1013.0
20200407010015 67 0.0 5.0 0.00 0.00 0.00 85 1013.0
20200407005516 67 0.0 2.0 0.00 0.00 0.00 84 1013.0
20200407005015 67 0.0 2.0 0.00 0.00 0.00 84 1013.1
20200407004515 68 0.0 3.0 0.00 0.00 0.00 84 1013.1
20200407004015 68 0.0 2.0 0.00 0.00 0.00 84 1013.2
20200407003516 68 0.0 2.0 0.00 0.00 0.00 84 1013.1
20200407003015 68 0.0 1.0 0.00 0.00 0.00 84 1013.2
20200407002515 68 0.0 3.0 0.00 0.00 0.00 84 1013.4
20200407002017 68 0.0 3.0 0.00 0.00 0.00 84 1013.4
20200407001516 68 0.0 2.0 0.00 0.00 0.00 84 1013.4
20200407001016 68 180 1.0 4.0 0.00 0.00 0.00 84 1013.5
20200407000515 68 0.0 2.0 0.00 0.00 0.00 84 1013.5
20200407000016 68 158 1.0 4.0 0.00 0.00 0.00 83 1013.5
20200406235516 68 158 1.0 4.0 0.00 0.00 0.00 83 1013.4
20200406235016 68 225 1.0 3.0 0.00 0.00 0.00 83 1013.4
20200406234515 68 180 1.0 4.0 0.00 0.00 0.00 83 1013.5
20200406234015 68 158 1.0 4.0 0.00 0.00 0.00 84 1013.6
20200406233515 68 203 1.0 3.0 0.00 0.00 0.00 84 1013.5
20200406233016 68 0.0 3.0 0.00 0.00 0.00 84 1013.4
20200406232515 68 158 1.0 3.0 0.00 0.00 0.00 84 1013.3
20200406232015 68 0.0 0.0 0.00 0.00 0.00 85 1013.3
20200406231517 68 0.0 2.0 0.00 0.00 0.00 84 1013.3
20200406231015 68 0.0 2.0 0.00 0.00 0.00 84 1013.3
20200406230515 68 0.0 3.0 0.00 0.00 0.00 84 1013.5
20200406230015 68 0.0 1.0 0.00 0.00 0.00 84 1013.6
20200406225515 68 0.0 3.0 0.00 0.00 0.00 84 1013.7
20200406225015 68 0.0 0.0 0.00 0.00 0.00 84 1013.8
20200406224515 68 0.0 2.0 0.00 0.00 0.00 84 1013.7
20200406224015 68 0.0 2.0 0.00 0.00 0.00 84 1013.6
20200406223515 68 0.0 1.0 0.00 0.00 0.00 84 1013.7
20200406223015 68 0.0 2.0 0.00 0.00 0.00 83 1013.8
20200406222515 68 0.0 2.0 0.00 0.00 0.00 83 1014.0
20200406222015 68 180 1.0 5.0 0.00 0.00 0.00 83 1014.2
20200406221515 68 180 1.0 5.0 0.00 0.00 0.00 83 1014.3
20200406221015 68 0.0 2.0 0.00 0.00 0.00 83 1014.2
20200406220515 68 158 1.0 4.0 0.00 0.00 0.00 82 1014.2
20200406220015 68 270 1.0 4.0 0.00 0.00 0.00 82 1014.2
20200406215515 69 203 1.0 5.0 0.00 0.00 0.00 81 1014.1
20200406215015 69 180 1.0 4.0 0.00 0.00 0.00 81 1014.0
20200406214515 69 158 1.0 6.0 0.00 0.00 0.00 80 1014.2
20200406214015 69 225 2.0 9.0 0.00 0.00 0.00 80 1014.1
20200406213515 69 158 2.0 6.0 0.00 0.00 0.00 79 1014.1
20200406213015 69 203 2.0 6.0 0.00 0.00 0.00 79 1014.1
20200406212516 69 203 1.0 6.0 0.00 0.00 0.00 80 1014.1
20200406212015 69 158 2.0 6.0 0.00 0.00 0.00 79 1014.1
20200406211515 69 158 3.0 7.0 0.00 0.00 0.00 79 1013.9
20200406211016 69 135 3.0 12.0 0.00 0.00 0.00 79 1013.8
20200406210515 69 203 2.0 5.0 0.00 0.00 0.00 79 1013.8
20200406210015 69 158 3.0 8.0 0.00 0.00 0.00 79 1013.9
20200406205515 69 158 3.0 9.0 0.00 0.00 0.00 79 1013.8
20200406205015 69 158 3.0 9.0 0.00 0.00 0.00 80 1013.8
20200406204515 69 135 2.0 10.0 0.00 0.00 0.00 80 1013.8
20200406204015 69 158 3.0 9.0 0.00 0.00 0.00 80 1013.9
20200406203515 69 158 3.0 12.0 0.00 0.00 0.00 80 1014.2
20200406203015 69 158 4.0 12.0 0.00 0.00 0.00 79 1014.1
20200406202516 69 158 3.0 9.0 0.00 0.00 0.00 79 1014.1
20200406202016 69 158 2.0 8.0 0.00 0.00 0.00 79 1014.0
20200406201515 69 135 2.0 5.0 0.00 0.00 0.00 79 1014.2
20200406201015 69 158 2.0 11.0 0.00 0.00 0.00 78 1014.2
20200406200515 70 158 3.0 11.0 0.00 0.00 0.00 78 1014.4
20200406200015 70 135 2.0 10.0 0.00 0.00 0.00 77 1014.6
20200406195515 70 135 2.0 10.0 0.00 0.00 0.00 77 1014.6
20200406195015 70 113 3.0 8.0 0.00 0.00 0.00 76 1014.7
20200406194515 70 135 3.0 8.0 0.00 0.00 0.00 76 1014.8
20200406194015 71 203 2.0 8.0 0.00 0.00 0.00 75 1015.0
20200406193515 71 135 1.0 5.0 0.00 0.00 0.00 75 1015.2
20200406193015 71 203 2.0 5.0 0.00 0.00 0.00 75 1015.5
20200406192515 71 203 1.0 4.0 0.00 0.00 0.00 75 1015.5
20200406192015 71 203 1.0 3.0 0.00 0.00 0.00 75 1015.6
20200406191515 71 158 1.0 3.0 0.00 0.00 0.00 75 1015.7
20200406191015 71 0.0 2.0 0.00 0.00 0.00 76 1015.7
20200406190515 70 158 1.0 4.0 0.00 0.00 0.00 75 1015.8
20200406190015 70 225 1.0 4.0 0.00 0.00 0.00 75 1015.9
20200406185515 70 203 2.0 6.0 0.00 0.00 0.00 75 1016.0
20200406185015 71 203 1.0 6.0 0.00 0.00 0.00 74 1016.2
20200406184515 71 135 2.0 7.0 0.00 0.00 0.00 74 1016.2
20200406184015 71 203 2.0 7.0 0.00 0.00 0.00 73 1016.3
20200406183515 71 203 3.0 10.0 0.00 0.00 0.00 72 1016.4
20200406183017 71 203 2.0 8.0 0.00 0.00 0.00 73 1016.5
20200406182517 72 180 2.0 7.0 0.00 0.00 0.00 72 1016.5
20200406182017 72 203 2.0 6.0 0.00 0.00 0.00 72 1016.5
20200406181517 72 225 1.0 5.0 0.00 0.00 0.00 72 1016.5
20200406181015 72 203 2.0 5.0 0.00 0.00 0.00 72 1016.5
20200406180517 72 203 1.0 5.0 0.00 0.00 0.00 73 1016.4
20200406180017 72 158 2.0 5.0 0.00 0.00 0.00 72 1016.5
20200406175517 72 0.0 2.0 0.00 0.00 0.00 73 1016.4
20200406175017 71 180 1.0 4.0 0.00 0.00 0.00 73 1016.4
20200406174517 71 158 1.0 6.0 0.00 0.00 0.00 73 1016.5
20200406174017 72 158 1.0 4.0 0.00 0.00 0.00 73 1016.5
20200406173517 72 203 1.0 6.0 0.00 0.00 0.00 72 1016.6
20200406173017 71 135 1.0 5.0 0.00 0.00 0.00 73 1016.6
20200406172517 72 135 1.0 5.0 0.00 0.00 0.00 73 1016.7
20200406172017 72 135 1.0 4.0 0.00 0.00 0.00 72 1016.7
20200406171516 72 135 2.0 8.0 0.00 0.00 0.00 72 1016.8
20200406171017 72 135 1.0 8.0 0.00 0.00 0.00 72 1016.9
20200406170515 72 158 2.0 6.0 0.00 0.00 0.00 71 1017.0
20200406170017 72 203 1.0 6.0 0.00 0.00 0.00 71 1017.0
20200406165517 72 180 1.0 4.0 0.00 0.00 0.00 73 1017.1
20200406165017 72 158 1.0 4.0 0.00 0.00 0.00 72 1017.2
20200406164517 72 203 1.0 4.0 0.00 0.00 0.00 72 1017.2
20200406164017 71 158 1.0 5.0 0.00 0.00 0.00 73 1017.2
20200406163517 71 203 1.0 5.0 0.00 0.00 0.00 73 1017.3
20200406163017 71 158 2.0 6.0 0.00 0.00 0.00 74 1017.3
20200406162517 71 180 2.0 7.0 0.00 0.00 0.00 73 1017.1
20200406162017 70 158 2.0 6.0 0.00 0.00 0.00 73 1017.2
20200406161517 70 158 1.0 5.0 0.00 0.00 0.00 74 1017.2
20200406161017 70 135 1.0 4.0 0.00 0.00 0.00 74 1017.3
20200406160517 70 45 1.0 4.0 0.00 0.00 0.00 75 1017.4
20200406160015 70 203 2.0 5.0 0.00 0.00 0.00 75 1017.4
20200406155517 69 158 2.0 5.0 0.00 0.00 0.00 76 1017.4
20200406155017 69 158 1.0 5.0 0.00 0.00 0.00 76 1017.3
20200406154517 68 158 1.0 3.0 0.00 0.00 0.00 78 1017.1
20200406154016 68 158 1.0 4.0 0.00 0.00 0.00 78 1017.0
20200406153517 67 158 1.0 5.0 0.00 0.00 0.00 78 1017.1
20200406153017 67 158 1.0 3.0 0.00 0.00 0.00 78 1017.2
20200406152517 67 158 1.0 5.0 0.00 0.00 0.00 79 1017.1
20200406152017 67 158 1.0 5.0 0.00 0.00 0.00 79 1017.0
20200406151516 67 225 2.0 6.0 0.00 0.00 0.00 79 1017.0
20200406151017 66 225 1.0 4.0 0.00 0.00 0.00 79 1016.9
20200406150517 66 158 1.0 4.0 0.00 0.00 0.00 80 1016.7
20200406150016 66 180 1.0 5.0 0.00 0.00 0.00 81 1016.6
20200406145517 65 158 1.0 5.0 0.00 0.00 0.00 81 1016.4
20200406145017 65 158 2.0 4.0 0.00 0.00 0.00 81 1016.4
20200406144517 65 180 1.0 4.0 0.00 0.00 0.00 82 1016.4
20200406144017 64 158 1.0 5.0 0.00 0.00 0.00 82 1016.4
20200406143517 64 180 1.0 5.0 0.00 0.00 0.00 83 1016.6
20200406143017 64 158 1.0 4.0 0.00 0.00 0.00 83 1016.9
20200406142516 63 158 1.0 4.0 0.00 0.00 0.00 84 1016.8
20200406142016 63 158 1.0 3.0 0.00 0.00 0.00 84 1016.7
20200406141517 63 0.0 3.0 0.00 0.00 0.00 84 1016.7
20200406141017 63 0.0 2.0 0.00 0.00 0.00 85 1016.8
20200406140516 62 0.0 3.0 0.00 0.00 0.00 85 1016.9
20200406140017 62 0.0 2.0 0.00 0.00 0.00 85 1016.9
20200406135517 62 0.0 1.0 0.00 0.00 0.00 85 1017.1
20200406135016 62 0.0 1.0 0.00 0.00 0.00 85 1017.1
20200406134517 62 0.0 1.0 0.00 0.00 0.00 86 1017.2
20200406134016 62 0.0 2.0 0.00 0.00 0.00 86 1017.2
20200406133517 62 0.0 0.0 0.00 0.00 0.00 86 1017.1
20200406133016 61 0.0 2.0 0.00 0.00 0.00 86 1017.0
20200406132517 61 0.0 3.0 0.00 0.00 0.00 86 1017.0
20200406132016 61 0.0 1.0 0.00 0.00 0.00 87 1016.8
20200406131516 61 0.0 3.0 0.00 0.00 0.00 87 1016.7
20200406131016 61 0.0 2.0 0.00 0.00 0.00 87 1016.5
20200406130516 61 0.0 1.0 0.00 0.00 0.00 87 1016.6
20200406130016 61 0.0 1.0 0.00 0.00 0.00 87 1016.6
20200406125516 61 0.0 1.0 0.00 0.00 0.00 87 1016.6
20200406125016 60 0.0 0.0 0.00 0.00 0.00 87 1016.7
20200406124516 60 0.0 2.0 0.00 0.00 0.00 87 1016.5
20200406124016 60 0.0 1.0 0.00 0.00 0.00 87 1016.4
20200406123516 60 0.0 2.0 0.00 0.00 0.00 87 1016.3
20200406123017 60 0.0 0.0 0.00 0.00 0.00 87 1016.3
20200406122516 60 0.0 1.0 0.00 0.00 0.00 87 1016.3
20200406122017 60 0.0 0.0 0.00 0.00 0.00 87 1016.2
20200406121516 60 0.0 0.0 0.00 0.00 0.00 87 1016.1
20200406121016 60 0.0 1.0 0.00 0.00 0.00 87 1016.1
20200406120516 60 0.0 1.0 0.00 0.00 0.00 87 1016.0
20200406120016 60 0.0 1.0 0.00 0.00 0.00 87 1015.8
20200406115516 60 0.0 0.0 0.00 0.00 0.00 87 1015.7
20200406115016 60 0.0 1.0 0.00 0.00 0.00 87 1015.6
20200406114516 60 0.0 2.0 0.00 0.00 0.00 87 1015.9
20200406114016 60 0.0 1.0 0.00 0.00 0.00 87 1015.9
20200406113516 61 0.0 2.0 0.00 0.00 0.00 87 1015.9
20200406113016 61 0.0 0.0 0.00 0.00 0.00 87 1015.7
20200406112516 61 0.0 0.0 0.00 0.00 0.00 87 1015.6
20200406112016 61 0.0 0.0 0.00 0.00 0.00 87 1015.8
20200406111516 61 0.0 4.0 0.00 0.00 0.00 87 1016.0
20200406111016 61 0.0 1.0 0.00 0.00 0.00 87 1016.0
20200406110516 61 0.0 2.0 0.00 0.00 0.00 87 1016.0
20200406110016 60 0.0 1.0 0.00 0.00 0.00 87 1015.8
20200406105516 60 0.0 3.0 0.00 0.00 0.00 87 1015.7
20200406105016 60 0.0 1.0 0.00 0.00 0.00 87 1015.5
20200406104516 60 0.0 1.0 0.00 0.00 0.00 87 1015.4
20200406104016 60 0.0 0.0 0.00 0.00 0.00 87 1015.4
20200406103516 60 0.0 0.0 0.00 0.00 0.00 87 1015.4
20200406103017 60 0.0 0.0 0.00 0.00 0.00 87 1015.5
20200406102516 61 0.0 0.0 0.00 0.00 0.00 87 1015.6
20200406102016 61 0.0 0.0 0.00 0.00 0.00 87 1015.8
20200406101516 61 0.0 1.0 0.00 0.00 0.00 87 1015.8
20200406101016 61 0.0 0.0 0.00 0.00 0.00 87 1015.6
20200406100516 61 0.0 0.0 0.00 0.00 0.00 87 1015.7
20200406100016 61 0.0 1.0 0.00 0.00 0.00 87 1015.7
20200406095516 61 0.0 1.0 0.00 0.00 0.00 87 1015.8
20200406095016 61 0.0 2.0 0.00 0.00 0.00 87 1015.7
20200406094516 61 0.0 1.0 0.00 0.00 0.00 87 1015.5
20200406094016 61 0.0 2.0 0.00 0.00 0.00 87 1015.7
20200406093516 61 0.0 1.0 0.00 0.00 0.00 87 1015.7
20200406093016 61 0.0 0.0 0.00 0.00 0.00 87 1015.5
20200406092516 61 0.0 1.0 0.00 0.00 0.00 87 1015.6
20200406092016 60 0.0 0.0 0.00 0.00 0.00 87 1015.7
20200406091516 60 0.0 1.0 0.00 0.00 0.00 87 1015.8
20200406091016 60 0.0 1.0 0.00 0.00 0.00 87 1015.8
20200406090516 60 0.0 0.0 0.00 0.00 0.00 87 1015.8
20200406090016 60 0.0 1.0 0.00 0.00 0.00 87 1015.8
20200406085516 60 0.0 1.0 0.00 0.00 0.00 87 1015.9
20200406085016 60 0.0 1.0 0.00 0.00 0.00 87 1015.9
20200406084516 60 0.0 1.0 0.00 0.00 0.00 87 1015.9
20200406084016 60 0.0 0.0 0.00 0.00 0.00 87 1016.0
20200406083516 60 0.0 1.0 0.00 0.00 0.00 87 1016.1
20200406083016 60 0.0 0.0 0.00 0.00 0.00 86 1016.2
20200406082516 61 0.0 0.0 0.00 0.00 0.00 86 1016.2
20200406082016 61 0.0 2.0 0.00 0.00 0.00 86 1016.3
20200406081516 61 0.0 0.0 0.00 0.00 0.00 86 1016.4
20200406081016 61 0.0 0.0 0.00 0.00 0.00 86 1016.5
20200406080516 61 0.0 0.0 0.00 0.00 0.00 86 1016.5
20200406080016 61 0.0 0.0 0.00 0.00 0.00 86 1016.5
20200406075516 61 0.0 0.0 0.00 0.00 0.00 86 1016.6
20200406075016 61 0.0 0.0 0.00 0.00 0.00 86 1016.6
20200406074516 61 0.0 0.0 0.00 0.00 0.00 86 1016.5
20200406074016 61 0.0 0.0 0.00 0.00 0.00 86 1016.5
20200406073516 61 0.0 0.0 0.00 0.00 0.00 86 1016.6
20200406073016 61 0.0 0.0 0.00 0.00 0.00 86 1016.6
20200406072516 61 0.0 0.0 0.00 0.00 0.00 86 1016.7
20200406072016 61 0.0 1.0 0.00 0.00 0.00 86 1016.6
20200406071516 61 0.0 0.0 0.00 0.00 0.00 86 1016.5
20200406071016 61 0.0 0.0 0.00 0.00 0.00 86 1016.6
20200406070516 61 0.0 0.0 0.00 0.00 0.00 86 1016.6
20200406070016 61 0.0 0.0 0.00 0.00 0.00 86 1016.8
20200406065516 61 0.0 0.0 0.00 0.00 0.00 86 1017.0
20200406065016 61 0.0 0.0 0.00 0.00 0.00 86 1017.1
20200406064516 61 0.0 0.0 0.00 0.00 0.00 86 1017.1
20200406064016 61 0.0 0.0 0.00 0.00 0.00 86 1017.1
20200406063516 61 0.0 1.0 0.00 0.00 0.00 86 1017.2
20200406063016 61 0.0 0.0 0.00 0.00 0.00 86 1017.1
20200406062516 61 0.0 0.0 0.00 0.00 0.00 86 1017.2
20200406062016 61 0.0 0.0 0.00 0.00 0.00 86 1017.2
20200406061516 61 0.0 0.0 0.00 0.00 0.00 86 1017.1
20200406061016 61 0.0 0.0 0.00 0.00 0.00 86 1017.1
20200406060516 61 0.0 1.0 0.00 0.00 0.00 86 1017.1
20200406060016 61 0.0 0.0 0.00 0.00 0.00 86 1017.1
20200406055516 61 0.0 0.0 0.00 0.00 0.00 86 1017.1
20200406055016 61 0.0 1.0 0.00 0.00 0.00 86 1017.1
20200406054516 61 0.0 1.0 0.00 0.00 0.00 86 1017.1
20200406054016 61 0.0 0.0 0.00 0.00 0.00 85 1017.1
20200406053516 61 0.0 0.0 0.00 0.00 0.00 85 1017.1
20200406053016 61 0.0 2.0 0.00 0.00 0.00 85 1017.1
20200406052516 61 0.0 0.0 0.00 0.00 0.00 85 1017.2
20200406052016 61 0.0 0.0 0.00 0.00 0.00 85 1017.1
20200406051515 61 0.0 0.0 0.00 0.00 0.00 85 1017.0
20200406051016 61 0.0 0.0 0.00 0.00 0.00 85 1017.0
20200406050516 61 0.0 0.0 0.00 0.00 0.00 85 1017.0
20200406050015 62 0.0 0.0 0.00 0.00 0.00 85 1017.0
20200406045516 62 0.0 0.0 0.00 0.00 0.00 85 1016.9
20200406045016 62 0.0 2.0 0.00 0.00 0.00 85 1016.9
20200406044516 62 0.0 2.0 0.00 0.00 0.00 85 1016.8
20200406044016 62 0.0 1.0 0.00 0.00 0.00 85 1016.8